Theta_e
317 316 314 312 311 312 313 312 313 317 321 323 321 320 321 320 319 323 329 335 338 339 338 335 334 336 337 338 338 339 340 340 340 339 339 339 340 340 340 339 337 333 330 327 322 321 322 318 313 312 313 314 314 314 313 314 314 315 316 315 320 325 327 327 327 331 334 333 330 327 325 327 329 332 331 331 333 333 333 333 336 338 338 338 337
317 317 315 314 313 311 312 312 312 313 316 319 321 321 321 320 319 319 324 332 337 339 339 338 339 339 339 339 338 338 340 340 340 339 339 339 339 339 339 339 338 335 332 329 323 321 322 319 314 312 313 314 314 314 313 313 313 313 315 315 316 320 324 326 326 329 332 333 334 333 331 329 328 329 327 325 328 330 329 331 336 338 338 338 337
316 317 316 315 314 313 311 312 312 313 313 314 317 319 320 319 320 319 321 327 332 337 340 340 340 340 339 340 338 336 336 337 339 340 339 339 339 338 338 338 338 336 332 328 323 320 320 320 317 313 312 314 314 314 313 313 313 313 314 316 315 318 321 323 323 326 332 334 333 332 333 333 330 329 326 323 325 328 328 330 336 338 338 338 338
316 316 316 316 315 315 313 312 311 312 312 313 314 315 317 318 319 320 320 323 327 333 339 340 341 341 341 340 340 337 333 335 338 339 339 339 339 339 338 338 338 338 336 332 326 320 319 321 320 316 313 313 314 314 314 313 313 313 314 315 315 317 318 319 319 321 329 334 331 329 331 330 329 333 333 328 325 328 331 333 336 338 339 339 339
315 315 316 316 316 315 315 314 312 312 312 312 313 313 314 314 315 316 318 321 323 326 334 338 340 341 340 339 340 339 335 336 338 339 339 340 340 339 339 339 338 337 337 336 333 326 322 322 322 320 316 313 314 315 314 313 314 313 313 314 315 316 316 317 316 316 323 327 328 331 331 327 326 332 334 331 330 330 328 330 336 339 339 339 339
314 315 315 316 316 315 315 314 313 313 313 311 312 312 313 313 313 313 314 315 315 316 324 334 338 339 339 338 340 340 337 337 337 338 339 339 340 340 340 339 339 338 337 337 336 332 328 325 322 322 320 315 313 314 314 314 313 313 314 314 315 316 315 316 315 315 317 318 324 332 331 329 332 332 331 331 333 331 325 326 334 338 339 339 339
314 314 314 315 316 315 315 314 314 314 313 312 312 312 312 312 313 313 313 312 311 311 317 327 334 336 337 339 340 340 338 336 333 334 336 336 337 339 340 340 340 340 339 338 337 336 334 329 323 321 322 319 315 313 314 315 313 314 317 317 316 317 316 316 316 316 316 316 321 329 327 328 334 333 330 331 333 333 331 332 331 332 336 339 338
313 313 314 314 315 315 315 314 314 314 313 312 312 312 312 312 312 313 313 313 313 313 316 325 332 334 336 338 338 338 338 337 333 331 331 331 331 332 337 339 340 341 341 340 338 337 335 332 326 322 322 321 319 316 314 315 314 313 317 317 316 317 317 317 317 316 316 316 318 323 324 326 331 333 331 330 331 332 334 336 332 326 332 337 337
312 313 313 314 314 314 314 314 314 314 314 312 311 312 311 312 312 312 313 313 314 314 316 324 331 333 335 336 336 337 338 337 336 335 332 330 330 328 329 335 339 341 341 341 340 339 337 334 329 327 324 322 322 320 316 314 314 314 314 314 314 316 315 316 317 316 316 317 316 319 323 329 332 334 333 332 331 330 331 336 335 329 331 335 335
312 312 313 313 313 314 314 314 314 314 314 313 312 312 311 312 312 312 312 312 314 314 314 320 327 331 333 334 335 336 337 337 336 338 337 334 333 330 328 331 335 339 340 340 341 340 339 337 333 330 327 323 322 322 320 316 314 314 314 314 313 314 315 315 315 315 315 317 316 315 323 332 334 334 336 334 332 331 329 332 335 335 335 337 335
312 312 312 313 313 313 313 314 314 314 314 313 313 312 312 311 312 312 312 312 313 314 314 315 320 328 332 333 333 334 336 336 335 338 340 337 335 333 331 331 332 335 337 338 340 340 340 340 337 334 330 326 323 323 322 318 315 314 314 314 313 313 315 314 314 314 314 317 316 315 324 333 335 334 336 336 334 333 331 330 334 337 338 338 337
311 311 312 312 313 313 313 313 313 314 314 314 313 313 312 311 311 311 312 312 312 313 314 313 316 324 330 332 333 334 334 335 335 336 338 336 335 334 333 333 331 332 336 337 338 340 340 340 339 337 334 329 325 323 322 321 318 315 314 314 314 313 314 314 314 314 314 317 316 314 320 331 335 334 334 336 335 334 333 331 334 338 338 338 337
311 311 311 312 312 312 312 313 313 313 313 314 313 313 313 312 311 311 312 312 312 312 313 313 313 318 323 328 333 334 334 334 334 335 334 332 333 335 334 333 332 332 335 336 337 339 340 340 340 339 337 333 328 324 322 322 321 318 315 314 314 314 313 314 314 314 314 316 318 316 316 326 334 335 334 335 334 334 334 332 334 338 337 337 337
310 311 311 311 311 311 312 312 312 312 312 313 313 313 313 313 312 312 312 311 312 312 312 313 313 314 317 323 330 332 333 334 334 335 334 331 332 334 334 334 333 331 332 334 337 338 339 339 340 339 339 336 331 326 323 322 322 321 317 315 315 315 314 313 313 314 313 314 320 323 318 322 332 336 335 334 334 334 333 332 334 338 337 337 337
310 311 311 311 311 311 311 311 312 312 312 312 313 313 313 313 313 313 312 311 312 312 312 312 313 313 314 318 324 329 332 333 334 335 335 334 333 333 333 334 334 332 330 331 332 334 337 339 340 340 339 337 334 329 323 321 323 323 321 318 317 318 317 314 313 314 313 312 318 323 322 323 330 335 336 334 334 334 333 332 334 337 337 337 337
310 310 310 310 310 311 311 311 311 311 311 312 312 312 313 313 313 313 312 312 311 312 312 312 312 313 313 314 318 324 329 332 334 335 335 335 334 333 333 333 334 333 331 329 329 332 335 337 338 339 338 337 336 332 326 322 321 322 324 321 318 320 323 318 312 313 314 313 315 319 325 329 329 332 335 335 334 332 332 333 333 336 338 337 337
309 310 310 310 310 310 310 311 311 311 311 311 311 312 312 313 313 313 312 312 311 311 312 312 312 313 313 314 314 318 325 329 331 333 334 335 334 334 334 333 333 334 333 332 332 333 333 333 335 337 337 336 335 333 330 326 321 320 323 324 320 322 327 326 318 315 315 315 316 319 326 333 333 331 333 334 332 327 329 332 332 335 338 337 337
309 309 309 310 310 310 310 310 311 311 311 311 311 312 312 312 313 313 313 312 312 312 312 312 312 313 312 313 313 314 319 323 327 330 331 333 334 334 335 335 334 334 334 333 333 332 332 333 335 337 337 336 336 335 332 329 326 321 320 323 323 322 327 330 327 324 322 320 321 323 326 334 336 332 331 332 330 324 324 328 329 334 338 337 337
309 309 309 310 310 309 310 310 310 310 311 311 311 311 311 312 312 313 313 313 313 312 312 312 312 312 312 313 313 313 315 317 322 326 329 331 333 333 335 336 335 334 333 332 332 331 329 329 332 335 337 336 337 337 335 333 329 325 323 323 324 324 327 331 330 329 330 328 327 327 329 334 336 333 331 330 328 323 320 324 327 332 338 337 337
308 309 309 309 309 309 309 310 310 310 310 310 311 311 311 311 312 312 313 313 313 313 313 313 312 312 312 312 313 313 313 314 317 322 326 329 331 332 333 334 335 334 332 330 331 330 327 325 327 332 335 335 337 338 338 336 333 328 326 322 322 326 329 332 332 331 332 332 331 330 330 333 334 334 333 332 330 323 319 324 329 332 335 335 335
308 309 309 309 309 309 309 309 310 310 310 310 310 310 311 311 311 312 312 313 313 313 313 313 313 313 313 312 312 313 313 314 315 318 322 326 330 332 332 332 334 334 333 331 331 329 326 323 322 327 333 335 336 337 337 338 336 330 324 321 323 327 329 333 335 333 333 333 332 331 332 333 333 335 337 336 334 326 317 323 330 332 334 334 333
308 309 309 309 309 309 309 309 310 309 310 310 310 310 310 311 311 311 312 312 313 313 314 314 314 314 314 313 313 312 313 313 314 316 319 322 327 331 331 331 333 334 334 334 332 328 325 323 320 322 329 334 336 337 336 336 336 331 326 325 326 329 330 332 334 334 334 333 330 330 334 336 334 336 338 337 337 330 319 320 329 331 333 334 334
308 308 309 309 309 309 309 310 309 309 309 309 309 310 310 310 311 311 312 312 312 313 313 314 314 314 315 314 314 313 313 313 314 315 317 318 323 328 330 330 331 333 334 335 333 328 323 323 321 320 325 331 334 337 337 336 336 333 331 330 329 329 329 332 333 335 336 334 330 328 334 338 336 337 338 337 338 335 326 324 330 332 332 335 336
308 308 308 308 309 309 309 309 309 309 309 309 309 309 309 310 310 310 311 311 312 313 313 314 314 314 314 314 314 314 313 313 314 315 316 315 318 324 328 331 332 333 334 335 334 330 323 321 320 319 322 327 332 336 338 338 337 335 332 332 331 331 331 332 333 335 337 337 335 333 335 337 337 337 338 338 338 338 332 327 331 334 332 332 336
308 308 308 308 308 309 309 309 309 309 309 309 309 309 309 309 310 310 311 311 312 312 313 314 314 314 314 314 314 314 314 313 314 315 316 315 318 322 326 331 334 334 334 334 334 330 325 320 318 318 321 325 328 334 337 337 337 336 335 334 336 336 334 333 334 335 336 338 338 337 336 337 338 338 338 338 337 338 336 330 329 334 335 332 335
308 308 308 308 309 309 309 309 309 309 309 309 309 309 309 309 310 310 310 311 312 312 313 314 314 314 314 315 314 314 314 313 314 316 317 317 320 325 327 330 334 334 334 335 333 331 326 320 316 317 322 325 328 331 334 336 337 337 337 336 337 338 339 337 335 335 336 337 337 337 337 337 338 338 338 338 337 337 338 333 329 331 333 333 335
307 307 308 308 309 309 309 309 309 309 309 309 309 309 309 309 309 310 310 311 312 312 313 314 314 314 314 315 315 315 315 315 314 316 318 320 323 326 327 329 333 334 335 335 332 331 328 321 315 317 322 326 329 331 332 334 335 337 337 337 336 337 338 338 337 336 336 337 337 337 338 338 338 338 338 338 338 337 338 336 332 327 326 330 336
307 308 308 308 308 308 308 308 308 309 309 309 309 309 309 309 310 310 311 311 312 312 313 314 314 314 314 315 315 315 316 316 315 315 319 321 323 325 327 329 332 334 335 334 330 329 329 323 315 315 322 327 329 331 333 334 335 336 337 337 336 336 336 337 338 337 337 337 336 337 338 338 337 337 338 337 337 337 337 337 335 327 320 327 335
307 308 308 308 308 308 308 308 308 308 308 308 309 309 309 310 310 310 311 311 312 312 313 314 314 314 314 314 315 315 316 318 317 316 319 321 321 324 327 330 332 333 333 333 329 326 329 325 314 314 321 326 327 329 332 334 335 336 337 337 338 338 336 337 337 336 336 337 336 336 337 337 337 336 336 336 336 337 336 336 335 327 318 324 333
307 307 308 308 308 308 308 308 307 308 308 308 309 309 310 310 311 311 312 312 313 313 313 314 314 314 315 314 315 315 316 318 318 317 320 321 320 325 329 330 333 333 333 333 329 326 329 326 314 316 324 326 325 327 330 333 334 334 335 337 338 338 337 338 338 337 336 337 335 334 335 336 337 336 335 335 335 335 333 331 330 326 318 321 330
307 307 308 308 308 308 307 307 307 307 308 308 308 309 309 310 311 312 313 313 314 314 314 314 314 314 315 315 315 315 316 318 318 319 321 321 321 326 330 331 332 332 332 331 326 325 329 324 313 319 328 328 327 327 328 331 332 332 332 333 334 334 333 335 337 337 336 336 336 335 335 335 336 336 335 333 332 331 330 326 326 324 318 319 326
307 307 308 308 307 307 307 307 307 307 307 308 308 309 310 310 311 312 313 314 315 315 315 315 315 315 315 315 315 315 316 318 319 320 321 320 321 326 330 331 332 332 332 331 326 326 328 322 313 318 326 328 328 326 325 329 331 331 332 331 330 329 330 330 332 334 336 337 338 337 336 336 336 336 335 333 331 329 328 325 323 322 320 318 323
306 307 307 307 307 307 307 307 307 307 308 308 308 309 310 310 311 313 315 316 317 316 315 315 315 315 315 315 315 316 317 318 319 321 320 319 322 327 328 330 331 332 332 330 329 330 328 319 314 317 321 325 327 326 326 327 329 330 331 330 329 329 329 329 329 332 335 338 339 338 337 336 337 337 336 335 334 330 326 324 325 325 323 320 322
306 307 307 307 307 307 307 307 307 307 308 308 309 310 310 311 312 314 315 317 318 317 315 315 316 315 315 316 316 316 318 318 319 321 320 319 324 326 327 329 330 331 331 330 330 331 326 318 317 318 321 325 326 326 326 324 324 326 327 328 328 328 329 330 329 331 336 338 338 338 337 337 337 338 337 336 336 334 327 322 325 328 326 322 322
306 306 306 307 307 307 307 307 307 308 308 308 309 310 311 313 314 314 314 317 318 317 316 315 316 315 316 316 316 317 318 318 320 321 320 320 324 326 328 329 329 328 330 330 330 330 326 320 320 320 323 326 326 327 326 322 323 326 327 327 327 327 330 333 333 334 336 337 337 336 337 337 337 339 337 333 333 336 334 325 322 326 326 323 323
306 306 306 306 306 307 307 307 307 307 307 308 309 310 312 314 314 313 314 317 318 318 317 316 316 316 316 316 317 317 318 319 320 321 321 322 324 325 326 325 324 326 329 329 330 330 328 325 323 321 324 326 325 327 327 324 325 329 330 330 329 329 331 334 335 335 334 334 336 337 337 338 337 338 338 332 326 332 336 333 325 322 323 323 322
305 305 306 306 306 306 307 307 307 307 307 307 308 310 312 314 313 313 315 317 318 318 318 317 317 317 317 317 317 318 317 319 322 322 322 323 325 324 324 323 324 327 327 326 328 330 330 328 325 322 324 324 324 326 327 326 328 330 331 330 330 330 332 332 334 334 331 332 337 338 337 337 337 337 337 335 328 328 334 335 330 323 322 323 320
305 305 306 306 306 307 307 307 306 307 307 306 307 309 310 311 312 313 316 317 318 319 319 318 318 318 318 318 318 317 316 319 323 323 321 322 324 324 324 325 327 327 324 323 327 330 329 328 325 320 321 322 321 324 326 326 328 330 331 330 328 328 330 331 333 334 333 333 337 338 337 336 336 338 338 336 333 330 332 335 334 329 325 322 319
305 305 306 306 306 307 307 307 306 306 306 306 306 307 308 310 312 314 317 318 319 319 319 318 318 319 319 319 319 319 319 321 324 324 322 323 325 325 325 325 327 327 323 322 328 329 328 328 324 318 318 320 318 320 322 324 327 330 331 331 330 329 329 329 331 333 334 335 336 337 337 335 334 337 338 338 336 333 332 332 332 332 331 326 319
305 305 306 306 306 307 307 306 306 306 306 306 306 307 308 309 311 314 317 319 319 320 320 320 319 320 321 321 321 321 321 322 322 323 324 325 326 327 327 327 329 329 326 325 327 327 326 329 326 318 317 319 316 315 317 319 324 328 330 332 332 331 329 328 329 330 333 335 336 336 337 336 334 334 336 338 338 336 333 332 332 335 336 330 319
305 305 305 306 306 306 306 306 306 306 306 306 306 306 307 308 311 315 318 320 320 321 322 322 321 320 320 321 321 321 321 321 321 323 324 324 323 324 325 327 329 330 330 330 329 326 326 330 328 319 316 318 316 315 314 314 319 324 327 330 332 332 330 328 329 330 331 333 334 336 337 336 335 334 333 336 338 336 334 335 335 336 335 329 321
305 305 305 305 306 306 306 306 306 305 305 305 305 306 307 308 310 314 318 320 320 321 321 322 322 321 319 320 320 319 319 319 320 322 323 322 320 320 321 324 326 327 329 331 330 328 329 331 330 324 319 317 316 315 314 313 316 320 323 326 329 331 330 330 331 332 332 331 332 334 336 336 335 334 333 333 335 335 334 336 336 336 334 329 325
305 305 305 305 305 306 306 306 306 305 305 305 305 305 307 308 309 313 316 318 319 319 319 320 321 321 320 319 318 318 318 318 318 319 319 319 320 320 320 321 321 320 323 327 328 328 330 331 332 330 325 320 316 315 314 314 315 318 321 322 324 328 330 331 332 333 333 332 331 331 334 335 335 334 334 333 332 333 334 335 336 336 335 332 330
305 305 305 305 305 305 305 305 305 305 305 305 304 305 307 307 309 311 314 316 317 318 317 317 318 319 320 319 319 318 317 317 317 317 317 318 319 319 319 320 320 319 321 324 323 324 326 328 331 332 330 325 320 317 315 314 315 318 320 321 321 324 327 330 333 333 333 333 332 332 333 334 334 334 333 333 331 331 332 334 335 336 336 336 335
305 305 305 305 304 305 305 305 305 305 304 304 304 305 306 307 308 310 312 314 316 318 317 316 316 316 317 319 320 319 318 317 315 315 315 315 316 316 317 318 319 320 322 322 321 321 322 324 327 332 332 329 326 323 320 316 315 317 319 320 320 322 324 327 330 332 333 333 334 334 334 334 334 333 333 333 331 330 330 332 335 336 337 337 337
305 305 305 305 304 304 304 304 305 304 304 304 304 304 305 306 307 309 311 313 315 317 318 317 317 316 316 316 318 319 320 319 317 316 315 315 315 316 316 317 319 320 321 322 322 322 321 322 325 330 331 330 329 329 327 322 319 318 318 319 320 320 321 324 327 329 331 332 333 334 335 335 335 334 334 334 332 330 329 330 334 336 337 337 337
305 305 305 305 304 304 304 304 304 304 304 304 304 305 305 306 308 309 311 312 313 316 317 317 317 317 317 316 316 317 318 319 318 317 317 317 316 316 317 318 320 321 323 323 324 325 324 323 326 329 330 329 329 330 329 326 323 320 319 318 319 318 319 322 324 326 327 328 329 331 332 334 335 335 335 336 335 333 331 330 333 335 337 337 337
305 305 305 304 304 304 304 304 304 304 304 304 304 305 305 307 308 309 309 310 312 314 315 316 317 317 317 317 317 317 318 318 317 317 316 316 315 315 315 316 318 320 322 323 324 324 324 324 326 328 328 327 328 328 327 326 324 323 321 319 317 317 317 319 322 324 325 325 326 326 328 331 333 335 335 336 336 335 333 332 333 335 336 337 337
305 305 304 304 304 304 304 304 304 304 304 304 304 305 305 306 307 308 309 310 311 312 313 314 315 316 317 317 317 318 318 318 317 316 315 314 314 315 315 315 317 319 321 322 322 323 324 325 326 327 327 327 326 325 326 326 325 322 320 319 317 316 316 317 318 321 325 326 325 325 326 329 332 334 334 335 335 335 334 334 334 335 336 336 336
304 304 304 304 304 304 304 303 304 304 304 304 304 304 305 305 305 307 308 309 310 311 312 313 313 314 315 316 317 317 318 318 318 317 317 315 315 315 316 317 318 319 320 321 322 323 323 324 325 326 326 327 327 326 327 328 326 322 320 320 319 319 319 319 319 321 325 327 326 324 326 330 332 333 334 334 334 335 335 334 334 335 335 336 336
304 304 304 304 304 304 304 303 303 304 304 304 304 304 304 304 304 305 306 308 309 310 310 311 312 312 313 314 315 315 316 317 318 318 318 318 317 317 317 318 318 318 320 321 322 322 323 324 325 325 325 325 326 326 327 328 327 326 324 324 324 324 324 324 324 324 326 327 325 324 326 330 332 333 333 334 334 334 335 335 334 334 334 334 334
Wind_Speed
14 16 18 18 16 14 11 7 5 7 12 15 16 16 12 17 17 15 17 14 13 16 17 19 23 25 24 22 20 18 16 16 18 19 20 19 18 19 20 20 22 25 24 22 24 25 24 23 24 27 31 33 34 33 31 30 29 26 25 24 25 25 23 21 18 13 8 6 5 4 3 3 3 3 3 3 4 3 3 5 5 4 2 2 3
13 15 17 18 17 14 12 9 6 4 8 13 17 20 21 18 21 21 23 20 16 18 19 21 23 23 20 18 16 15 15 15 17 18 19 20 19 19 20 21 22 23 23 22 23 25 25 23 24 27 31 34 34 33 33 32 29 27 26 25 25 25 24 24 23 16 10 8 7 5 4 4 4 3 3 4 6 5 4 5 6 5 3 3 3
15 15 16 17 17 16 13 10 7 4 5 8 15 20 24 24 22 23 27 27 22 19 20 21 21 20 18 16 14 14 15 15 16 17 19 20 21 20 20 21 22 22 23 23 24 26 26 25 24 26 30 33 35 34 34 33 30 28 27 26 26 24 23 24 25 19 11 9 8 7 7 6 5 4 3 3 6 5 2 3 5 6 4 4 4
19 17 16 16 16 16 15 13 10 7 5 6 10 17 23 27 29 29 31 34 29 23 22 22 21 20 19 18 15 15 15 15 15 16 18 20 21 21 21 21 21 22 23 24 25 27 28 27 26 26 28 31 34 35 35 33 31 29 27 27 27 25 24 24 24 21 14 11 9 8 7 7 7 5 4 2 4 2 1 1 4 6 6 5 5
20 19 17 16 16 15 15 14 13 10 8 7 8 11 17 23 28 31 35 37 34 29 25 23 24 23 22 21 18 17 17 16 17 17 18 20 21 22 21 21 21 23 24 23 25 28 28 28 27 26 26 28 33 36 35 34 32 30 28 28 28 26 26 25 23 21 19 15 11 8 7 7 7 6 5 4 3 3 1 2 4 6 7 6 6
19 20 19 16 15 15 14 14 14 12 11 10 9 10 13 16 21 27 32 35 35 33 28 25 26 26 25 25 22 21 20 19 20 20 20 20 20 20 20 20 22 23 24 24 24 26 27 27 28 28 26 27 31 34 35 35 34 32 29 29 28 27 26 25 23 21 20 19 15 12 10 7 5 6 5 4 4 6 7 4 3 5 7 8 7
18 20 21 18 15 15 15 15 14 13 13 13 12 11 12 14 16 19 24 28 32 33 31 28 28 28 29 28 27 25 22 21 22 21 20 20 20 19 19 21 22 22 23 24 25 25 25 26 28 29 28 28 29 32 35 36 36 33 29 29 28 26 26 25 24 23 20 19 17 16 15 11 7 6 6 4 5 6 6 4 4 5 7 8 8
16 19 22 21 18 16 15 15 15 14 15 15 14 13 13 14 15 17 18 21 25 30 32 31 28 28 29 30 29 29 26 23 22 22 21 21 21 22 21 21 22 22 23 23 25 25 24 27 30 30 30 30 30 30 33 35 37 35 31 31 29 27 28 26 25 24 21 20 18 16 17 15 11 9 8 7 6 6 5 5 5 6 7 8 9
13 15 18 20 21 19 16 16 15 14 15 16 16 15 14 15 16 17 18 19 20 24 30 33 31 26 27 30 31 32 31 28 25 23 22 21 22 23 23 22 22 23 24 23 24 25 26 28 31 32 31 32 31 30 30 33 36 37 35 35 33 31 30 27 26 25 22 20 20 17 16 15 12 10 9 9 8 8 7 6 6 7 8 9 9
12 13 14 17 20 21 19 17 16 15 15 16 16 16 16 16 16 17 19 20 21 21 24 31 34 30 27 29 31 32 32 32 29 25 22 21 21 22 22 23 23 24 26 26 25 25 26 26 29 32 33 33 33 31 30 31 34 37 37 36 34 33 31 28 27 26 23 22 20 18 16 15 13 11 10 10 10 10 9 7 7 7 7 8 9
13 13 13 15 17 20 21 20 18 16 15 15 15 16 17 17 17 18 18 20 22 22 22 25 30 32 28 26 28 31 32 32 33 29 25 23 22 22 23 23 23 24 26 27 26 26 26 26 26 28 32 34 34 33 31 31 32 35 37 36 35 34 32 30 29 27 25 24 22 19 17 15 14 13 11 10 10 10 10 8 8 9 7 7 8
13 13 14 15 17 19 21 22 21 19 17 15 15 16 17 18 18 19 19 20 21 23 24 23 24 29 30 26 26 30 31 32 34 32 30 28 25 23 23 23 23 24 25 26 27 27 26 26 26 26 28 32 35 35 33 31 30 32 35 37 36 35 33 32 30 29 27 25 23 22 20 16 15 14 12 11 11 10 10 9 9 10 8 8 8
14 14 14 15 17 19 21 22 23 22 19 17 17 17 17 18 19 20 20 21 22 23 25 25 24 26 31 30 26 27 30 33 33 31 32 32 29 26 24 23 23 24 26 28 28 28 28 27 26 25 25 29 34 35 34 32 31 31 33 35 36 35 34 33 32 30 29 27 24 23 23 19 16 15 14 13 13 11 11 10 10 10 9 8 8
14 14 15 16 18 20 21 21 23 23 22 21 19 17 17 17 18 20 21 22 23 24 25 26 26 25 28 32 31 28 28 31 32 31 32 34 33 31 27 25 24 25 26 28 28 27 28 28 27 27 26 26 31 34 34 33 32 32 32 33 35 34 34 34 33 31 30 28 25 24 24 22 17 16 16 15 14 13 13 12 11 11 10 9 8
16 16 16 17 18 20 21 21 22 23 23 23 21 19 18 18 18 19 21 22 23 24 25 26 27 27 26 30 35 33 29 29 31 32 32 33 34 34 32 28 25 25 24 25 25 25 28 29 28 28 26 24 27 33 35 34 33 32 31 31 32 32 33 35 33 32 31 29 28 26 24 23 20 17 17 17 16 15 15 14 14 13 12 11 10
19 18 18 19 19 20 20 21 23 23 23 23 23 22 21 21 19 19 21 22 23 24 26 26 27 29 28 28 33 36 34 30 29 30 31 32 33 34 33 30 28 25 23 22 21 21 24 28 29 29 27 25 26 31 35 35 34 33 32 32 32 30 30 32 33 33 32 31 30 28 25 23 22 20 18 18 18 17 17 16 16 16 14 13 12
21 21 21 21 21 21 21 22 23 23 24 24 23 23 22 23 22 21 21 22 23 24 25 26 27 29 31 30 30 35 37 35 31 30 31 32 32 32 32 33 32 28 25 23 20 20 22 25 27 27 28 30 30 31 34 36 35 34 33 33 32 30 28 27 29 31 32 32 30 29 27 23 22 22 20 19 20 19 18 18 19 19 16 14 13
22 21 22 22 22 22 23 23 23 24 24 24 23 22 22 22 22 23 24 24 24 24 24 26 27 28 31 32 31 32 35 39 37 34 33 33 33 32 32 33 33 31 29 27 23 21 21 23 24 25 28 31 32 32 34 37 37 35 34 34 33 31 28 25 26 27 29 31 30 29 28 24 22 22 20 19 21 20 20 20 21 21 19 17 14
22 21 21 22 22 23 24 25 25 24 24 23 22 22 22 23 23 23 24 25 25 24 24 26 27 28 30 32 33 32 32 36 39 38 35 34 36 36 34 32 32 31 32 31 25 22 21 21 23 25 28 31 30 31 33 35 37 37 35 35 35 33 30 28 27 26 26 28 30 29 28 25 24 22 20 20 21 21 21 21 23 23 20 19 17
23 23 22 23 24 24 25 26 26 25 24 23 22 23 23 23 24 24 24 25 26 26 25 26 27 28 30 32 33 34 33 33 36 39 38 35 35 37 36 35 33 31 33 33 28 23 22 22 22 23 27 31 31 31 31 32 35 38 36 35 36 34 31 30 29 29 27 26 28 29 28 27 25 21 19 19 20 21 22 22 24 24 22 21 20
24 23 24 24 25 25 25 26 26 26 25 25 24 24 24 24 24 24 25 25 26 26 26 27 27 28 30 32 33 34 34 33 34 37 39 37 35 36 37 36 35 33 33 33 30 26 25 23 21 21 24 28 31 31 32 32 32 36 38 37 36 35 33 32 30 31 30 26 26 28 28 27 26 21 18 18 18 20 23 23 25 25 23 22 21
23 23 24 25 26 26 26 26 26 25 25 26 26 25 25 24 24 24 24 25 26 26 26 27 27 27 28 30 33 34 35 35 34 35 38 40 38 36 35 36 36 36 34 33 31 29 27 24 22 22 23 26 30 31 33 34 32 33 35 35 35 35 34 33 31 31 31 29 29 30 27 25 25 22 20 20 19 20 23 24 26 26 24 23 22
23 23 24 25 25 26 26 26 26 25 25 25 26 26 26 26 25 24 24 25 26 26 26 26 27 28 29 29 32 34 35 36 36 36 38 40 40 37 35 34 35 37 37 35 33 30 30 27 23 23 23 25 29 30 32 34 34 33 33 34 35 35 35 35 34 31 30 29 30 31 29 25 23 22 22 22 21 21 23 24 25 27 26 24 22
23 24 25 25 26 26 27 27 27 26 26 26 26 26 26 26 25 25 25 25 26 27 27 27 28 30 30 31 33 34 35 36 37 38 39 40 41 40 38 34 34 36 36 36 36 33 33 32 27 25 25 26 29 31 33 33 33 33 34 34 34 34 34 35 34 32 30 28 27 28 28 26 24 23 23 22 22 22 24 25 25 26 25 22 20
25 26 27 27 27 27 28 28 28 28 28 27 26 25 25 25 26 26 27 27 27 27 28 28 29 30 30 32 34 35 36 38 39 38 39 40 40 41 39 35 33 34 34 35 37 35 35 35 31 27 26 27 29 31 34 34 33 33 33 33 31 31 31 33 33 32 30 29 27 26 25 26 26 25 24 23 23 22 23 25 26 26 24 22 20
27 27 28 29 29 29 29 30 30 29 28 27 26 25 25 25 26 27 28 29 29 28 28 29 29 30 31 32 34 36 37 39 39 38 38 39 38 39 39 36 34 35 36 37 38 35 36 37 33 29 28 28 29 30 33 36 35 34 34 33 31 29 28 30 31 31 31 30 29 27 25 25 27 27 26 24 23 22 21 24 26 27 25 23 22
27 28 29 30 30 30 31 31 30 29 28 27 26 26 24 24 25 26 28 30 30 30 30 29 29 30 32 32 33 35 37 38 39 38 37 36 36 38 39 37 35 36 36 38 39 36 37 39 34 30 28 28 30 31 33 36 37 36 34 34 34 32 29 28 28 29 30 30 30 28 26 26 27 28 27 24 24 23 21 22 25 27 27 25 22
27 28 29 31 32 32 32 31 31 29 28 27 27 25 23 23 23 25 27 28 29 30 30 31 30 30 32 33 32 33 34 35 38 39 36 35 36 38 37 35 35 36 36 39 40 37 38 39 34 29 28 28 31 32 32 35 37 36 33 33 34 33 31 28 26 26 27 29 30 28 27 27 28 28 28 25 25 24 22 21 24 26 27 26 23
28 29 30 31 33 33 33 32 31 30 28 27 26 25 23 23 24 25 28 28 27 28 29 31 31 31 32 33 32 31 32 32 35 37 35 35 37 36 35 35 35 36 37 38 38 36 39 39 32 28 28 29 32 33 33 34 36 35 33 33 33 32 30 28 25 25 25 27 29 29 28 28 29 29 29 27 26 25 23 23 24 26 27 26 25
30 32 33 32 33 33 33 33 32 30 29 28 27 25 26 27 27 26 29 29 27 29 30 31 32 31 30 32 31 31 31 30 32 34 34 35 36 35 34 35 35 35 35 36 37 37 38 37 31 27 28 30 32 32 32 33 35 36 33 31 31 30 28 24 22 23 25 26 28 29 28 28 29 29 30 30 29 28 27 27 27 26 28 28 28
32 34 34 33 33 33 32 32 34 32 30 28 28 28 30 30 27 25 27 28 25 27 30 31 31 30 29 31 31 30 30 30 31 32 32 34 36 36 36 35 34 34 34 34 37 38 38 35 31 27 27 29 30 29 29 31 35 37 35 30 28 27 26 25 22 23 25 25 26 27 27 28 29 30 31 30 30 30 30 31 30 28 29 29 30
33 34 33 33 33 32 31 34 36 34 30 29 29 29 29 28 26 24 26 26 23 24 27 28 29 28 28 30 30 29 29 29 29 30 31 34 36 38 38 34 33 34 33 32 35 37 37 35 31 28 28 28 28 27 27 29 33 36 35 32 30 29 30 32 30 28 27 25 24 25 26 26 27 28 28 28 29 31 31 32 32 31 29 29 30
32 32 32 32 31 30 31 34 35 32 30 29 28 27 27 26 25 24 24 24 22 22 23 25 26 24 25 28 29 28 27 28 28 28 31 34 36 38 38 35 33 32 31 30 31 32 35 34 31 29 28 27 27 26 25 27 30 33 34 32 31 31 33 36 36 33 29 25 24 24 25 25 24 24 25 24 26 30 32 33 33 32 30 30 32
31 31 31 31 29 30 31 33 32 29 28 27 25 25 27 26 24 23 23 22 19 17 17 20 22 21 23 26 27 26 26 27 26 27 31 35 35 36 36 33 31 30 29 29 29 28 31 33 31 28 25 25 27 26 25 26 29 31 33 34 34 32 32 35 37 35 31 27 25 24 24 24 22 21 22 22 23 25 29 34 35 33 32 33 34
30 30 31 30 29 31 32 32 30 27 27 26 25 26 28 27 24 23 23 21 16 15 15 15 18 21 23 25 26 26 25 25 25 27 31 33 32 33 33 31 29 29 27 28 28 27 28 31 30 26 23 24 26 26 26 29 30 32 32 33 35 35 33 33 34 33 31 28 27 27 26 24 22 20 21 23 23 22 25 31 36 36 35 35 36
30 30 29 29 29 30 31 30 28 27 25 24 26 27 27 27 26 24 21 17 14 13 15 14 16 20 23 24 24 24 24 24 24 27 30 31 30 32 32 31 30 29 28 29 28 26 26 28 27 25 23 24 26 27 29 31 31 31 31 32 34 36 36 35 34 33 30 28 29 30 28 25 23 20 20 23 25 22 21 26 33 37 37 36 37
29 28 28 28 27 27 28 27 27 27 24 23 25 26 26 27 26 24 19 17 15 10 11 14 16 19 22 23 24 25 26 25 25 27 29 30 29 30 30 31 31 30 30 30 29 27 26 26 26 25 23 23 25 27 30 31 31 30 31 33 35 36 37 36 35 34 34 32 31 31 29 26 24 23 22 24 24 24 23 23 27 34 37 37 38
27 27 28 28 27 26 26 25 26 26 23 22 24 25 25 26 26 24 21 18 15 10 6 12 16 18 20 23 25 26 27 26 26 28 30 30 30 30 30 31 32 31 31 31 29 28 28 28 27 25 24 23 24 26 28 29 30 31 32 34 36 37 38 38 37 37 38 37 35 32 30 29 26 24 24 25 24 25 26 24 24 29 34 37 39
25 25 26 27 27 24 24 24 25 25 24 23 24 24 25 26 25 24 21 18 14 10 5 6 13 17 19 21 21 21 22 23 22 24 27 27 28 29 31 31 31 31 32 32 31 30 29 29 29 26 25 24 24 25 27 28 29 30 32 34 36 37 38 39 39 38 37 37 35 32 31 32 31 27 25 26 25 26 28 28 27 27 30 35 40
25 24 24 25 24 22 23 24 25 25 24 22 22 23 23 24 25 24 21 19 16 10 8 6 5 11 12 12 14 14 15 15 16 20 24 25 23 23 25 27 29 31 32 33 33 32 30 30 31 29 27 27 27 27 29 30 30 30 31 32 35 38 38 39 39 39 37 35 34 33 33 34 34 32 30 29 28 28 28 29 28 27 28 33 38
26 24 24 23 22 22 23 24 24 24 24 22 22 24 24 24 24 23 20 19 17 13 12 15 11 4 4 5 5 7 10 11 11 13 16 18 18 18 19 21 23 25 28 31 32 33 32 30 31 32 31 31 31 29 29 31 32 32 32 33 35 37 38 38 39 39 39 38 34 32 32 33 34 35 34 34 33 31 29 28 27 26 27 31 36
27 26 25 23 22 23 24 25 24 24 24 23 23 25 25 24 24 22 18 17 16 14 14 18 19 16 16 17 15 12 10 8 5 4 5 6 10 15 19 22 21 19 22 29 30 30 31 29 28 31 35 35 33 30 29 31 33 34 34 34 35 37 38 38 36 34 36 38 37 34 31 31 33 34 35 37 37 34 32 30 29 27 26 29 34
29 28 27 24 23 24 25 25 25 24 24 23 24 24 24 24 23 22 18 15 14 13 12 14 18 20 19 19 19 18 15 11 9 7 5 3 1 4 10 18 21 21 19 24 25 23 26 27 24 26 31 34 34 31 31 32 33 34 34 34 34 35 37 39 36 31 30 33 36 36 34 32 33 35 36 38 38 37 35 33 32 31 29 29 32
29 28 27 25 25 25 25 25 25 24 23 22 23 24 25 25 23 21 19 16 13 12 11 11 14 18 18 17 17 16 14 12 10 8 5 4 2 3 4 8 12 13 14 19 21 20 22 23 21 21 23 27 31 32 32 33 34 34 34 35 33 33 35 38 38 35 31 30 31 33 34 34 35 37 38 38 38 38 36 34 33 33 31 31 32
28 27 27 26 26 26 26 25 24 24 23 21 21 24 26 26 24 22 20 18 14 11 10 11 13 14 16 15 12 11 10 10 10 10 9 9 8 8 8 8 10 12 15 19 22 23 23 22 20 19 20 23 27 29 31 34 35 34 34 35 35 33 32 34 37 37 36 34 31 30 32 34 36 37 39 39 39 39 37 34 33 33 33 33 34
26 27 26 27 27 27 26 26 25 24 24 23 22 23 25 26 24 22 20 19 17 13 11 11 12 12 13 12 10 8 7 5 7 9 11 12 12 11 12 13 14 16 18 20 23 25 25 25 24 22 21 22 24 26 28 31 33 32 33 35 36 36 35 34 35 37 38 38 36 34 33 33 34 36 38 39 40 41 39 36 34 34 35 35 35
24 25 25 26 27 28 28 26 25 24 24 23 23 24 25 26 25 22 20 20 19 16 14 13 12 13 14 13 11 9 6 3 3 4 5 8 10 12 14 16 17 19 22 23 24 26 27 28 26 24 22 22 24 24 27 30 32 32 32 34 35 36 37 36 36 36 38 38 39 38 37 36 35 36 37 37 37 39 39 38 37 37 37 37 37
22 23 24 24 26 28 28 26 25 24 24 23 23 24 25 26 25 22 21 21 20 18 17 16 14 14 14 14 13 12 9 7 6 6 5 6 10 15 19 22 24 24 25 26 25 25 27 27 26 24 23 24 25 26 28 32 34 33 33 34 35 36 37 39 39 38 37 38 38 38 39 38 37 37 38 38 37 37 38 39 39 39 40 40 39
20 22 23 23 24 26 28 26 24 23 24 25 24 24 25 26 26 25 23 22 22 20 19 18 16 16 16 14 13 13 12 11 11 10 9 10 14 20 25 31 33 27 27 30 29 26 25 24 24 24 24 25 26 28 28 30 34 36 35 35 35 36 37 39 41 39 36 35 36 37 37 38 38 38 39 40 40 39 40 40 41 41 41 41 42
19 20 21 22 22 24 26 26 24 23 25 26 26 25 24 25 26 26 26 25 23 22 21 20 19 18 18 16 15 14 14 14 14 14 14 15 16 20 25 31 31 23 26 32 33 30 27 24 24 25 25 26 26 26 25 26 32 36 37 36 35 36 36 37 38 37 34 33 34 35 35 37 39 40 40 41 42 42 41 41 42 43 43 44 45
18 20 21 21 21 23 25 26 25 23 23 24 25 26 26 24 23 24 27 27 26 24 23 22 21 19 19 18 17 16 15 14 14 14 14 14 15 17 19 22 21 18 23 29 31 32 29 27 27 29 29 30 30 28 27 28 30 33 34 33 32 32 33 33 31 30 31 33 35 35 35 36 38 40 41 42 42 43 43 43 43 45 47 48 48
Wind_Direction
23 17 18 19 21 20 11 352 307 260 231 213 200 198 232 282 291 267 253 252 248 245 236 224 222 225 228 229 227 225 221 220 224 224 222 222 222 218 217 220 221 219 216 214 215 216 215 215 216 215 210 208 208 207 205 208 212 211 214 217 217 218 220 223 226 219 213 225 236 232 220 219 214 214 239 254 259 255 271 276 265 257 221 155 164
24 20 15 15 15 14 16 6 341 287 249 232 217 204 206 242 279 273 254 247 240 241 238 226 224 224 227 233 233 227 223 221 222 222 222 223 223 223 220 220 223 221 217 215 217 219 218 216 216 216 213 210 208 208 207 209 210 210 213 215 216 219 221 225 228 224 221 224 216 201 196 212 230 246 263 271 267 252 246 261 253 248 224 174 182
17 19 14 12 10 8 8 6 358 330 276 246 229 221 214 221 242 254 252 249 241 241 243 235 230 230 235 241 242 239 233 229 226 223 223 224 225 227 224 222 224 223 221 219 219 221 220 218 217 216 215 213 210 209 210 211 210 210 212 214 215 215 219 226 229 225 220 213 206 206 201 204 222 237 247 268 270 258 238 252 245 240 234 192 183
4 10 11 8 8 8 3 357 352 340 305 271 240 232 230 229 231 233 239 245 244 239 240 240 238 235 239 242 241 245 242 235 233 229 226 225 225 227 226 225 225 225 225 222 220 222 221 218 216 215 217 217 214 211 211 212 212 211 211 214 216 214 218 225 229 225 213 200 206 214 206 214 224 202 192 259 283 268 133 212 241 231 229 211 191
356 358 4 5 4 6 3 355 347 338 317 291 268 246 240 238 240 238 236 241 243 239 235 237 239 236 237 239 236 236 237 231 229 228 227 225 224 224 224 225 227 228 228 225 223 223 224 221 216 216 217 218 218 215 214 212 213 214 211 215 218 218 222 226 228 226 217 214 216 205 201 229 228 186 185 243 276 279 271 244 242 232 225 218 204
353 349 352 359 1 360 357 353 348 339 322 302 284 270 257 247 245 244 243 243 243 240 234 232 238 238 235 237 236 231 229 228 226 225 225 225 225 224 222 224 227 229 229 229 227 224 226 226 219 216 217 218 219 219 217 214 214 215 213 216 220 221 225 228 229 227 224 227 223 211 212 221 202 183 202 230 229 259 276 256 225 235 228 221 215
351 346 345 349 354 356 353 348 346 337 323 310 296 282 273 265 256 251 249 246 243 239 232 228 235 238 235 237 240 235 229 230 230 228 228 228 230 228 225 225 226 228 229 230 230 227 227 227 223 218 217 219 219 219 220 218 216 214 213 216 219 220 224 226 229 228 225 227 225 220 222 217 201 203 220 233 228 245 259 231 225 247 237 229 224
351 344 340 341 345 349 350 344 340 333 323 314 306 293 278 271 268 264 260 254 246 239 232 227 228 235 238 238 240 238 233 232 234 234 233 233 235 235 232 230 229 228 228 228 229 229 227 227 227 223 219 219 219 218 219 220 219 215 213 216 216 218 222 223 227 230 226 226 227 226 228 226 223 225 227 235 246 246 232 224 243 254 239 232 229
353 344 337 335 336 340 343 341 337 331 323 315 310 302 289 276 270 268 267 263 257 245 235 229 224 227 236 238 239 238 234 232 233 235 236 235 236 238 236 235 233 230 229 227 226 229 230 229 229 228 224 220 219 218 217 219 222 219 217 218 217 219 223 221 226 232 230 229 230 230 230 227 224 231 233 232 241 247 239 229 236 245 237 234 234
351 343 335 331 330 332 334 336 336 332 325 318 311 305 297 285 274 270 267 265 262 255 244 235 227 224 229 237 239 239 236 235 235 235 236 238 237 237 236 235 235 235 233 230 228 228 230 230 230 230 228 223 220 220 218 218 221 222 221 221 220 222 225 223 224 230 231 230 233 233 227 221 219 224 230 231 232 239 245 238 232 239 235 231 235
347 340 334 331 329 328 329 330 331 330 326 321 315 307 299 291 281 273 268 265 263 260 255 246 233 224 223 230 236 239 238 239 240 237 233 235 237 236 234 233 234 236 237 236 235 232 229 229 230 229 228 226 222 220 221 219 220 222 224 225 224 224 226 225 223 227 229 228 232 232 224 216 216 220 224 229 228 228 236 235 228 233 228 227 237
344 338 335 332 329 328 327 325 325 326 325 322 318 311 301 294 286 277 270 265 263 261 260 257 243 229 223 223 228 235 238 239 240 239 234 232 234 236 233 232 233 235 238 240 239 236 232 230 229 228 228 228 226 222 221 222 222 222 224 226 227 226 227 227 224 224 225 225 228 231 226 217 215 221 222 225 227 226 231 231 225 227 219 217 229
342 337 336 333 330 328 324 323 322 321 321 319 317 314 308 298 290 283 275 268 263 260 261 262 254 239 229 224 223 227 234 238 239 237 236 234 234 235 232 231 233 233 236 239 239 237 235 232 228 227 226 227 228 226 222 222 223 224 224 226 228 229 229 229 228 226 225 225 226 229 228 221 215 220 221 222 226 225 228 229 224 223 216 208 214
339 336 335 331 328 326 323 321 319 317 316 315 313 311 309 303 295 288 281 273 266 260 259 261 261 251 236 228 227 225 226 233 236 235 235 235 236 236 233 231 233 234 235 238 241 240 238 233 227 226 226 225 228 228 225 222 222 224 225 226 228 230 231 231 231 230 229 227 224 225 228 224 217 218 222 224 224 223 224 224 221 222 218 209 208
337 335 332 327 325 323 321 319 318 316 313 311 310 308 305 302 297 291 284 278 272 264 259 259 260 258 246 232 229 228 225 226 230 232 233 234 236 236 233 232 233 234 236 238 241 242 240 235 229 226 225 223 226 230 228 224 222 224 226 227 228 229 231 233 232 232 232 230 226 226 228 226 221 218 222 227 226 223 222 219 217 219 218 213 212
335 333 330 327 325 323 321 319 318 315 312 308 306 305 303 300 296 292 287 280 275 270 263 259 258 258 254 241 232 229 227 225 224 227 229 231 233 234 232 232 232 232 233 236 239 240 240 239 236 232 227 223 225 229 231 228 225 226 226 227 228 228 230 232 233 233 234 232 230 228 226 225 225 223 223 228 228 226 223 218 216 216 216 216 214
332 330 327 325 324 323 321 319 318 315 311 308 304 302 300 299 296 294 290 282 276 273 268 262 259 257 255 250 241 232 228 227 226 225 225 227 230 231 231 232 232 231 232 235 238 239 241 242 241 236 229 226 224 225 230 231 229 229 229 229 228 228 228 230 231 232 233 232 230 228 225 223 225 226 225 228 232 232 225 217 216 217 218 221 220
329 326 325 324 324 323 321 319 318 315 311 307 304 302 298 296 295 293 291 286 279 275 270 265 261 258 255 252 249 242 233 230 230 228 225 225 226 226 227 229 230 231 232 234 238 238 237 240 241 234 226 225 224 223 227 230 230 230 231 231 230 230 229 227 225 227 231 231 228 226 225 221 222 225 226 231 235 236 229 219 217 218 218 223 226
327 325 325 325 324 323 321 319 317 314 311 307 304 301 298 295 293 290 288 285 281 277 272 267 263 259 256 253 251 248 242 235 233 231 229 227 225 223 224 225 227 230 231 232 235 235 230 232 237 233 226 224 223 223 223 226 228 229 230 232 232 231 230 227 224 223 225 228 226 224 223 220 220 223 227 232 236 237 231 219 217 218 218 221 225
328 326 325 325 324 322 321 319 317 315 312 309 305 301 298 295 292 289 286 284 282 278 273 269 265 261 257 254 251 248 246 241 235 232 231 231 230 226 224 223 225 228 230 230 232 231 228 229 231 231 229 224 221 221 221 222 226 227 227 229 231 232 230 227 227 224 223 223 222 223 223 220 219 221 224 229 234 236 231 220 217 218 219 221 222
327 326 324 324 323 322 321 319 317 315 313 310 306 302 298 295 292 288 285 283 280 278 274 269 265 263 259 255 251 247 245 243 239 233 231 232 233 230 226 223 223 226 228 229 229 228 230 232 229 231 233 227 222 220 219 220 224 226 226 227 229 231 230 228 227 226 223 220 219 221 224 223 220 218 219 222 226 232 231 222 218 218 218 221 221
327 324 322 322 322 322 322 321 318 315 313 310 307 304 300 296 291 286 282 279 277 276 273 270 266 263 259 256 252 248 244 242 239 234 230 230 231 230 227 224 223 225 227 227 225 225 230 234 231 230 233 230 226 223 220 220 222 224 225 225 225 227 228 227 225 224 223 223 222 222 222 221 220 218 217 218 220 227 230 225 220 218 217 219 219
325 323 322 322 322 322 322 321 319 315 311 308 306 303 299 296 292 287 281 277 274 273 270 269 266 262 258 255 252 248 244 240 238 235 232 229 229 229 227 224 223 225 226 226 224 223 228 232 232 231 232 232 230 226 221 220 220 222 222 222 223 225 225 225 223 221 221 223 225 224 220 216 216 216 216 216 216 221 226 225 221 219 218 219 220
326 324 323 323 323 324 323 321 319 316 312 308 304 301 298 296 292 287 282 277 274 271 268 265 263 261 257 254 251 248 243 239 237 235 234 232 230 228 225 222 222 224 225 227 227 225 226 230 232 231 231 232 233 228 222 219 218 220 221 222 223 223 222 222 222 220 217 218 221 221 217 214 215 216 216 215 214 216 222 223 221 220 220 222 222
328 326 326 327 326 324 323 322 319 316 314 310 306 303 299 295 291 287 283 279 274 270 266 263 259 258 256 253 250 247 244 240 236 235 235 233 230 228 224 219 219 221 221 226 229 226 225 229 232 232 230 230 233 233 226 220 218 218 219 220 219 219 219 221 221 219 215 215 217 217 215 213 214 216 216 214 213 213 217 220 221 221 221 222 222
329 328 328 328 327 325 323 322 321 318 315 312 308 304 300 295 290 286 282 278 274 269 265 261 257 254 253 251 249 246 244 241 237 233 234 234 230 226 223 218 217 218 218 224 228 226 226 229 231 231 230 230 232 235 231 224 221 220 220 219 217 216 217 219 220 219 216 216 217 217 214 213 214 216 215 213 212 212 213 217 220 221 222 222 222
329 328 328 328 326 324 323 322 321 318 315 312 309 305 300 293 288 285 282 278 274 269 264 260 256 252 249 248 246 245 242 241 238 234 232 233 229 225 222 217 216 217 217 223 226 224 228 232 231 230 231 231 231 235 234 228 223 222 221 221 219 218 217 216 217 218 217 216 217 216 214 214 215 215 215 213 211 211 212 214 217 221 223 224 223
328 327 327 327 325 325 324 323 321 319 317 315 311 306 300 293 288 284 281 277 272 268 263 258 255 251 248 245 243 242 240 239 239 235 231 231 229 226 221 215 214 215 218 223 223 222 229 232 229 230 232 231 231 234 234 229 224 221 221 221 220 219 217 215 214 216 217 217 216 215 215 216 216 215 213 212 211 210 210 211 214 219 222 223 223
328 327 327 327 327 326 325 325 323 321 320 318 313 309 304 299 293 288 283 278 272 267 262 257 254 250 246 244 241 240 238 236 236 234 231 229 228 226 220 213 213 214 217 223 223 221 227 229 228 230 232 231 233 233 233 230 225 220 221 223 221 218 216 214 215 217 217 217 216 215 214 215 217 217 213 211 211 210 209 208 210 216 218 217 219
328 328 328 327 328 327 326 327 326 324 322 318 314 311 308 305 299 294 292 286 273 264 259 255 253 250 245 241 239 236 234 233 233 232 229 228 227 224 219 213 212 212 215 221 222 221 223 225 226 230 231 232 235 235 234 233 227 223 225 226 220 215 213 213 216 218 218 219 219 217 217 217 218 219 216 212 211 210 211 210 210 216 218 215 214
328 327 327 327 327 328 329 328 327 325 322 318 315 312 310 308 303 297 296 291 276 265 260 253 250 249 242 237 235 233 229 228 229 228 227 226 225 222 217 212 210 211 213 218 220 220 222 223 225 228 230 232 236 236 236 235 229 226 228 231 229 225 225 226 227 226 221 220 221 220 220 221 221 222 222 220 218 216 217 216 212 215 219 217 215
327 326 326 326 327 328 329 328 326 324 322 319 318 316 313 311 307 304 303 296 280 272 267 253 245 245 239 232 231 230 226 225 225 225 224 224 224 221 215 210 208 209 211 215 216 216 219 222 224 228 231 233 235 236 235 234 231 227 227 231 234 235 234 233 234 233 225 220 220 219 220 223 224 224 223 223 222 220 221 220 215 214 217 218 217
326 325 324 324 326 328 327 327 325 323 322 320 317 316 315 314 314 316 317 305 284 275 272 255 241 238 233 228 228 226 223 221 221 222 222 223 223 220 213 207 207 207 208 212 213 213 216 220 224 229 232 234 236 235 231 229 228 226 224 225 229 231 232 232 234 235 230 222 217 217 218 220 223 224 220 217 220 221 219 218 214 213 214 215 217
328 326 324 323 326 327 326 326 323 321 321 319 317 320 323 324 324 324 325 315 290 273 270 254 238 232 227 224 224 222 220 220 218 219 221 220 218 216 211 206 207 207 206 208 211 213 215 219 224 229 230 233 235 232 227 223 221 220 218 218 220 223 228 231 232 234 232 225 220 221 221 219 218 221 219 214 215 218 218 215 213 212 213 214 216
329 326 323 324 326 327 326 325 323 323 322 322 326 331 334 340 340 329 325 324 304 274 262 249 234 227 223 220 219 217 216 216 215 215 219 218 214 211 208 203 205 207 206 208 211 214 215 218 224 225 225 229 232 228 225 222 219 217 216 215 216 216 220 226 229 230 229 227 227 225 224 222 218 216 217 218 216 213 214 216 214 214 215 216 218
328 325 324 324 324 325 325 324 324 325 324 324 327 333 340 349 349 335 328 336 327 286 257 244 234 226 220 216 214 213 212 212 211 212 215 213 211 212 211 208 210 212 210 210 212 213 214 216 220 221 221 226 229 226 223 223 220 218 217 218 218 216 217 222 227 229 228 229 230 227 223 224 223 219 221 226 223 215 211 215 217 217 218 219 222
328 327 325 325 325 325 325 325 325 325 327 326 326 334 347 351 347 342 343 353 350 315 259 241 235 227 221 216 211 208 208 207 206 209 211 208 207 211 211 210 212 212 210 212 212 211 210 212 216 217 216 220 225 225 224 224 222 219 218 219 219 218 219 220 223 225 226 227 229 226 223 224 225 224 225 230 228 219 213 215 218 219 220 221 225
331 330 328 328 329 328 327 327 327 327 330 329 328 336 343 342 342 348 353 357 1 350 282 246 238 230 225 220 214 210 208 206 204 207 209 208 208 209 209 209 211 211 212 213 210 206 207 210 215 216 214 215 220 223 224 225 223 219 217 218 219 220 220 219 219 220 222 224 226 226 224 224 225 227 229 232 230 221 216 218 219 220 221 223 225
335 335 333 331 330 329 329 331 332 333 334 334 334 336 336 338 347 356 357 2 13 17 346 270 244 234 228 222 217 214 210 206 206 208 208 209 210 211 212 213 213 212 211 210 206 204 206 209 213 214 211 208 212 218 222 223 224 222 218 217 219 221 222 222 221 220 222 225 227 227 226 226 226 225 227 232 232 225 222 223 222 222 222 225 228
338 338 338 334 333 334 336 337 338 338 338 339 340 341 338 341 352 358 1 9 18 20 18 3 265 236 228 216 213 213 210 210 214 212 210 210 210 211 213 214 213 212 208 206 204 203 204 207 209 209 208 206 208 215 220 222 223 224 222 219 218 221 224 225 225 224 224 225 226 227 229 230 229 228 227 229 233 231 227 226 225 222 221 227 233
341 340 340 337 338 340 341 342 342 343 344 344 345 346 345 347 355 2 7 12 12 13 28 36 38 50 85 103 153 187 197 211 224 220 217 220 224 228 226 217 215 215 208 204 204 202 202 206 208 206 207 209 211 217 223 224 224 223 223 223 221 221 223 225 226 226 226 226 226 227 229 231 232 232 230 229 231 232 229 227 226 224 224 230 235
345 343 343 341 341 343 344 344 345 346 348 348 349 350 351 352 359 7 10 12 14 18 36 48 51 60 73 80 83 96 122 144 160 171 190 218 236 246 241 234 242 251 228 206 200 199 202 206 207 205 206 209 212 217 224 228 227 224 224 225 225 225 224 224 225 226 227 227 228 227 228 231 234 235 234 231 231 233 232 229 228 227 229 234 235
349 347 347 346 344 345 346 346 347 349 350 351 351 353 353 353 358 6 10 11 16 20 32 51 62 66 68 69 69 73 79 83 84 91 96 106 199 258 244 240 258 278 256 219 209 208 209 209 205 202 204 208 211 216 224 230 231 228 227 228 228 228 228 227 225 225 228 230 231 230 230 231 233 236 237 234 234 236 236 233 229 227 229 232 233
351 349 349 350 349 348 348 348 349 351 352 352 352 354 356 355 356 2 6 8 15 22 23 36 60 72 73 68 64 63 62 61 59 57 50 40 6 327 295 253 258 271 258 237 234 233 224 216 210 202 202 207 213 218 225 231 233 231 230 231 231 230 231 231 230 228 228 230 232 233 233 233 233 236 238 238 236 236 239 239 234 230 229 230 231
352 351 351 353 353 351 352 352 353 354 355 355 354 356 359 359 357 358 1 4 11 19 19 22 39 62 78 81 71 60 57 53 44 31 14 2 346 319 302 285 265 257 252 244 238 234 227 224 223 216 207 209 215 221 227 234 237 235 233 233 235 234 233 234 235 233 231 229 228 230 233 234 235 237 240 241 239 236 238 240 239 234 231 230 230
352 351 351 354 355 356 356 355 355 358 358 357 358 359 359 0 2 3 3 3 6 8 11 19 26 38 58 70 74 77 77 54 34 26 11 359 352 335 310 291 271 257 250 244 237 233 229 227 230 227 216 214 218 221 226 235 240 240 237 236 236 236 236 236 236 237 237 235 232 230 230 232 234 237 241 243 241 238 236 237 238 235 232 231 231
352 351 352 354 356 359 360 358 358 0 0 0 2 2 2 3 7 10 10 10 10 8 7 12 16 20 32 41 46 60 72 51 15 20 6 352 347 338 320 301 279 259 248 242 235 231 228 227 229 229 224 223 226 225 226 233 238 242 243 240 238 238 238 237 237 237 238 239 239 237 235 232 233 237 242 245 245 241 238 236 235 234 233 233 234
352 352 353 355 357 359 0 1 0 1 3 6 7 5 6 9 11 13 14 14 16 17 14 13 12 12 19 26 24 21 20 7 347 334 326 327 330 328 322 310 294 273 253 243 236 231 229 228 228 228 227 227 230 231 231 234 237 241 244 245 244 243 242 240 239 238 238 240 242 244 242 238 235 237 241 244 246 244 241 237 235 234 234 234 235
352 353 354 355 357 358 0 1 2 2 7 13 13 7 7 12 15 16 16 16 18 20 17 14 12 8 8 13 12 7 359 344 327 313 303 304 315 319 315 308 299 279 251 241 238 234 232 231 230 230 230 230 233 237 237 238 241 244 248 250 252 252 250 247 244 241 240 241 242 245 246 243 239 239 242 244 245 245 245 243 240 238 237 236 236
352 353 353 354 358 359 0 2 2 2 7 14 16 11 9 12 14 17 20 20 19 19 17 14 13 9 5 3 360 356 350 340 329 319 308 301 304 307 305 303 298 274 239 231 232 230 227 227 228 229 230 231 234 238 238 239 243 248 251 253 255 256 254 252 248 244 243 244 244 245 245 243 240 240 243 246 247 247 247 246 244 241 240 239 238
353 353 353 355 359 1 3 5 4 3 5 11 14 14 15 14 11 14 21 25 24 21 19 15 12 9 8 4 359 358 356 351 345 337 326 314 306 304 307 313 308 275 238 229 230 230 228 226 226 229 230 230 232 233 235 238 243 248 252 254 255 255 254 252 251 248 246 246 245 243 242 242 241 241 242 245 248 248 248 247 245 244 243 242 242